Date,TemperatureHighF,TemperatureAvgF,TemperatureLowF,DewpointHighF,DewpointAvgF,DewpointLowF,HumidityHigh,HumidityAvg,HumidityLow,PressureMaxIn,PressureMinIn,WindSpeedMaxMPH,WindSpeedAvgMPH,GustSpeedMaxMPH,PrecipitationSumIn
2013-2-1,53,45,35,-100,-100,-100,0,0,100,30.37,30.02,26,15,38,0.00
2013-2-2,49,32,28,-100,-100,-100,0,0,100,30.40,30.03,16,2,19,0.00
2013-2-3,55,48,41,-100,-100,-100,0,0,100,30.03,29.85,20,8,28,0.00
2013-2-4,48,42,36,-100,-100,-100,0,0,100,30.14,29.98,15,8,17,0.00
2013-2-5,62,52,45,-100,-100,-100,0,0,100,30.05,29.89,23,10,25,0.00
2013-2-6,62,54,50,-100,-100,-100,0,0,100,30.22,29.97,21,-20,24,0.00
2013-2-7,55,52,49,-100,-100,-100,0,0,100,30.23,29.77,37,24,44,0.00
2013-2-8,60,54,48,-100,-100,-100,0,0,100,29.99,29.53,37,15,45,0.00
2013-2-9,55,47,40,-100,-100,-100,0,0,100,30.35,29.98,19,10,26,0.00
2013-2-10,57,47,41,-100,-100,-100,0,0,100,30.46,30.25,17,11,18,0.00
2013-2-11,66,60,55,-100,-100,-100,0,0,100,30.29,29.95,27,3,36,0.00
2013-2-12,61,57,53,-100,-100,-100,0,0,100,30.08,29.91,16,8,20,0.00
2013-2-13,62,53,49,-100,-100,-100,0,0,100,29.99,29.63,21,4,29,0.00
2013-2-14,53,48,42,-100,-100,-100,0,0,100,30.07,29.79,15,8,20,0.00
2013-2-15,53,47,40,-100,-100,-100,0,0,100,30.09,29.94,10,7,12,0.00
2013-2-16,50,43,35,-100,-100,-100,0,0,100,29.95,29.69,24,9,34,0.00
2013-2-17,40,34,32,-100,-100,-100,0,0,100,30.27,29.86,26,14,33,0.00
2013-2-18,50,36,31,-100,-100,-100,0,0,100,30.44,30.27,18,9,21,0.00
2013-2-19,60,54,50,-100,-100,-100,0,0,100,30.29,29.91,25,-12,31,0.00
2013-2-20,54,48,42,-100,-100,-100,0,0,100,30.11,29.96,23,2,25,0.00
2013-2-21,52,45,36,-100,-100,-100,0,0,100,30.22,30.08,21,8,24,0.00
2013-2-22,52,47,43,-100,-100,-100,0,0,100,30.29,30.04,26,19,30,0.00
2013-2-23,55,48,44,-100,-100,-100,0,0,100,30.04,29.80,15,-1,18,0.00
2013-2-24,63,52,47,-100,-100,-100,0,0,100,29.98,29.75,17,9,23,0.00
2013-2-25,50,45,40,-100,-100,-100,0,0,100,30.16,29.97,29,17,33,0.00
2013-2-26,66,56,46,-100,-100,-100,0,0,100,30.05,29.59,30,21,33,0.00
2013-2-27,62,53,49,-100,-100,-100,0,0,100,29.81,29.61,21,13,30,0.00
2013-2-28,56,50,44,-100,-100,-100,0,0,100,29.83,29.69,22,11,29,0.00